[[{"header":{"parameterUnit":"m.s-1","parameterCategory":2,"la1":30.2991,"la2":30.254,"lo1":-89.0895,"lo2":-89.0444,"dy":0.0017,"dx":0.0017,"nx":28,"ny":28,"refTime":"2023-08-01T21:00:00:Z","depth":"0","parameterNumber":2,"parameterNumberName":"U-component_of_CURRENTS"},"data":[0,0,0,0,0,0,0,0,0,0,0,0,0,0,0,0,0,0,0,0,0,0,0,0,0,0,0,0,0,0,0,0,0,0,0,0,0,0,0,0,0,0,0,0,0,0,0,0,0,0,0,0,0,0,0,0,0,0,-0.2309,-0.2311,0,-0.2428,-0.2429,-0.243,-0.2574,-0.2576,-0.2579,-0.2581,-0.2628,-0.2627,-0.2626,0,0,0,0,0,0,0,0,0,0,0,0,0,-0.2207,-0.2208,-0.2309,-0.2311,-0.2312,-0.2428,-0.2429,-0.2431,-0.2573,-0.2576,-0.2579,-0.2582,-0.2628,-0.2627,-0.2625,0,0,0,0,0,0,0,0,0,0,0,0,0,-0.2279,-0.2208,-0.2309,-0.2399,-0.2409,-0.2428,-0.2429,-0.2431,-0.2573,-0.2577,-0.258,-0.2584,-0.2628,-0.2627,-0.2625,-0.2542,0,0,-0.262,-0.262,0,0,0,0,0,0,0,0,-0.2274,-0.2282,-0.2384,-0.2393,-0.2404,-0.2492,-0.2411,-0.2465,-0.2572,-0.2508,-0.2581,-0.2585,-0.2574,-0.2577,-0.2589,-0.2544,-0.2546,-0.262,-0.2619,-0.2619,-0.2618,0,0,0,0,0,0,0,-0.2269,-0.2278,-0.2354,-0.2386,-0.2398,-0.2435,-0.2449,-0.2422,-0.2516,-0.2514,-0.2525,-0.2541,-0.2579,-0.259,-0.2591,-0.2547,-0.262,-0.2619,-0.2618,-0.2617,-0.2414,-0.241,0,0,0,0,0,0,-0.2255,-0.2273,-0.235,-0.2357,-0.235,-0.2434,-0.245,-0.2458,-0.2518,-0.2532,-0.2538,-0.2547,-0.2591,-0.2593,-0.2593,-0.2473,-0.2619,-0.2617,-0.2616,-0.2419,-0.2413,-0.2408,0,0,0,0,0,0,-0.2252,-0.226,-0.2345,-0.2321,-0.2334,-0.2432,-0.244,-0.2458,-0.2459,-0.2538,-0.2551,-0.2519,-0.2594,-0.2595,-0.2545,-0.2477,-0.2616,-0.2615,-0.2424,-0.2417,-0.2411,-0.2247,0,0,0,0,0,0,-0.2249,-0.2258,-0.2246,-0.2319,-0.2335,-0.2301,-0.2438,-0.2458,-0.2465,-0.2478,-0.2524,-0.2535,-0.2597,-0.2547,-0.2544,-0.2477,-0.2614,-0.2429,-0.2421,-0.2413,-0.2258,-0.2236,-0.2216,0,0,0,0,0,-0.2244,-0.2163,-0.2244,-0.2253,-0.2319,-0.2297,-0.2304,-0.2388,-0.246,-0.2411,-0.2467,-0.2533,-0.2492,-0.2541,-0.2539,-0.2471,-0.2433,-0.2423,-0.2413,-0.2268,-0.224,-0.2217,0,0,0,0,0,0,-0.2103,-0.2174,-0.2263,-0.2213,-0.2248,-0.2321,-0.2285,-0.2352,-0.236,-0.2377,-0.247,-0.2478,-0.2416,-0.2443,-0.2495,-0.2383,-0.2473,-0.2462,-0.2363,-0.2338,-0.2317,-0.231,-0.2613,0,0,0,0,0,-0.2074,-0.2043,-0.213,-0.2091,-0.2102,-0.2197,-0.22,-0.2254,-0.2283,-0.2294,-0.2338,-0.2368,-0.2367,-0.2355,-0.2357,-0.2274,-0.2215,-0.2227,-0.2206,-0.2189,-0.2177,-0.2074,-0.2043,-0.2375,-0.2375,-0.2376,0,0,-0.2018,-0.2049,-0.204,-0.2061,-0.2106,-0.2088,-0.2203,-0.2174,-0.2166,-0.2288,-0.2257,-0.2289,-0.2329,-0.2266,-0.2237,-0.2281,-0.2026,-0.2176,-0.2161,-0.2159,-0.206,-0.2028,-0.2,-0.2369,-0.237,-0.2371,0,0,-0.1875,-0.1912,-0.1855,-0.1865,-0.1904,-0.1958,-0.1939,-0.1994,-0.2021,-0.1988,-0.2088,-0.2074,-0.2062,-0.2091,-0.2104,-0.195,-0.1925,-0.1938,-0.1822,-0.1721,-0.1693,-0.1669,-0.1398,-0.1352,-0.1923,-0.1923,-0.1922,0,-0.1824,-0.1782,-0.1825,-0.1777,-0.1784,-0.1892,-0.1845,-0.1862,-0.1897,-0.1877,-0.1948,-0.1918,-0.1986,-0.1904,-0.1899,-0.1905,-0.1786,-0.1924,-0.1694,-0.167,-0.1648,-0.1379,-0.1329,-0.1914,-0.1915,-0.1916,-0.1916,0,-0.166,-0.1641,-0.1586,-0.16,-0.1583,-0.1539,-0.16,-0.1571,-0.163,-0.1663,-0.1586,-0.1657,-0.1642,-0.1659,-0.1761,-0.1624,-0.1556,-0.1685,-0.1764,-0.1605,-0.1328,-0.128,-0.1901,-0.1904,-0.1906,-0.1909,0,0,-0.1527,-0.1497,-0.1482,-0.1482,-0.1494,-0.1462,-0.141,-0.1389,-0.1305,-0.1353,-0.122,-0.1316,-0.135,-0.1367,-0.1445,-0.1402,-0.1153,-0.1483,-0.1482,-0.1217,-0.0765,-0.0545,-0.047,-0.1244,-0.1239,-0.1234,-0.0578,0,-0.1421,-0.1328,-0.1321,-0.1237,-0.1215,-0.1251,-0.1175,-0.1152,-0.113,-0.1004,-0.1069,-0.0971,-0.1233,-0.1174,-0.1191,-0.1158,-0.1041,-0.1308,-0.0957,-0.0942,-0.0776,-0.0417,-0.0387,0.021,-0.0531,-0.0523,-0.0518,0,-0.1267,-0.1248,-0.1172,-0.1095,-0.1074,-0.1026,-0.0906,-0.0838,-0.0706,-0.0658,-0.0599,-0.0603,-0.0531,-0.0775,-0.0627,-0.0773,-0.0763,-0.075,-0.0727,-0.0565,-0.0637,-0.0099,0.0325,0.0251,-0.0444,-0.045,-0.0455,0,-0.119,-0.111,-0.1067,-0.1053,-0.0993,-0.0933,-0.0873,-0.0744,-0.06,-0.0397,-0.0218,-0.0173,-0.0042,-0.0089,-0.0122,-0.0337,0.0129,-0.0156,0.0099,0.0122,0.0195,0.0213,0.0565,-0.0012,-0.0013,-0.0015,-0.0017,0,-0.1081,-0.1016,-0.1037,-0.1016,-0.0867,-0.0854,-0.0622,-0.0531,-0.0302,-0.0064,-0.0042,0.0183,0.0116,0.0331,0.0177,0.0408,0.039,0.0257,0.0319,0.0275,0.0292,0.0254,0.0123,0.001,0.0004,-0.0001,-0.0005,0,-0.098,-0.0998,-0.0934,-0.0897,-0.0837,-0.0738,-0.0467,-0.0265,-0.0087,0.0255,0.0359,0.0596,0.0877,0.0931,0.1044,0.092,0.1046,0.1094,0.116,0.1213,0.1266,0.1143,0.1499,0.1485,0.1513,0.1523,0.1531,0,-0.0897,-0.0889,-0.085,-0.0747,-0.0721,-0.0545,-0.0356,-0.0174,0.0048,0.0464,0.0656,0.1085,0.1288,0.1725,0.1743,0.1883,0.1534,0.1965,0.1465,0.1438,0.1342,0.1084,0.1018,0.1712,0.172,0.1728,0.1733,0,-0.0761,-0.0797,-0.0759,-0.0586,-0.0425,-0.0204,0.0033,0.0215,0.0463,0.0712,0.1051,0.1252,0.1767,0.1978,0.2313,0.2279,0.1901,0.2118,0.2023,0.1544,0.1353,0.1312,0.1216,0.1798,0.1792,0.1787,0.1783,0.1781,-0.0625,-0.0571,-0.053,-0.0324,-0.0149,0.0092,0.029,0.0479,0.0762,0.1068,0.1227,0.1464,0.1894,0.2341,0.2465,0.27,0.239,0.2444,0.2336,0.2108,0.1959,0.2129,0.2763,0.2762,0.2761,0.276,0.276,0,-0.0392,-0.0342,-0.0197,0.0036,0.0277,0.029,0.0567,0.0709,0.0934,0.1104,0.1301,0.1613,0.2028,0.2376,0.2811,0.2818,0.2583,0.275,0.2291,0.2231,0.2386,0.2246,0.2876,0.2876,0.2876,0.2877,0.2877,0.2877,-0.0239,-0.0067,-0.0009,0.0408,0.0563,0.0814,0.0931,0.1004,0.1084,0.1226,0.1312,0.1382,0.176,0.2393,0.273,0.277,0.2499,0.2518,0.2406,0.237,0.2324,0.2279,0.2118,0.2711,0.2711,0.2142,0.2138,0.2135]},{"header":{"parameterUnit":"m.s-1","parameterCategory":2,"la1":30.2991,"la2":30.254,"lo1":-89.0895,"lo2":-89.0444,"dy":0.0017,"dx":0.0017,"nx":28,"ny":28,"refTime":"2023-08-01T21:00:00:Z","depth":"0","parameterNumber":3,"parameterNumberName":"V-component_of_CURRENTS"},"data":[0,0,0,0,0,0,0,0,0,0,0,0,0,0,0,0,0,0,0,0,0,0,0,0,0,0,0,0,0,0,0,0,0,0,0,0,0,0,0,0,0,0,0,0,0,0,0,0,0,0,0,0,0,0,0,0,0,0,0.0329,0.0332,0,0.058,0.0582,0.0584,0.0698,0.0698,0.0699,0.0699,0.0811,0.0813,0.0816,0,0,0,0,0,0,0,0,0,0,0,0,0,-0.005,-0.0044,0.0329,0.0333,0.0336,0.0579,0.0582,0.0585,0.0698,0.0698,0.0699,0.0699,0.081,0.0813,0.0816,0,0,0,0,0,0,0,0,0,0,0,0,0,0.0142,-0.0042,0.0328,0.0428,0.0439,0.0579,0.0582,0.0585,0.0698,0.0698,0.0699,0.0699,0.0809,0.0813,0.0817,0.0828,0,0,0.0829,0.083,0,0,0,0,0,0,0,0,0.0131,0.0155,0.0409,0.0421,0.0435,0.0615,0.049,0.0662,0.0697,0.0592,0.0699,0.07,0.0737,0.0747,0.0784,0.0834,0.0838,0.0829,0.0831,0.0833,0.0834,0,0,0,0,0,0,0,0.0117,0.0145,0.0421,0.0413,0.0429,0.0461,0.0488,0.0523,0.0649,0.0601,0.0612,0.0651,0.0742,0.078,0.0787,0.084,0.0829,0.0832,0.0835,0.0836,0.0959,0.096,0,0,0,0,0,0,0.0102,0.0133,0.0413,0.0429,0.029,0.0468,0.0498,0.055,0.0652,0.0672,0.065,0.0656,0.0773,0.0782,0.0791,0.0775,0.0833,0.0837,0.0839,0.0958,0.0959,0.096,0,0,0,0,0,0,0.0093,0.0125,0.0403,0.0291,0.033,0.0474,0.0532,0.0555,0.0591,0.0693,0.0708,0.0663,0.0774,0.0786,0.0834,0.0781,0.0838,0.0842,0.0957,0.0959,0.096,0.0765,0,0,0,0,0,0,0.0081,0.012,0.0129,0.0291,0.0336,0.0459,0.0533,0.056,0.0618,0.0627,0.0708,0.0721,0.0775,0.0828,0.0838,0.0788,0.0845,0.0956,0.0958,0.096,0.077,0.0759,0.075,0,0,0,0,0,0.0067,0.0066,0.0128,0.0162,0.0352,0.0458,0.0482,0.0582,0.0617,0.0617,0.0696,0.0718,0.0846,0.0831,0.0843,0.0792,0.0955,0.0957,0.0959,0.0774,0.0761,0.075,0,0,0,0,0,0,-0.011,0.0084,0.0154,0.021,0.032,0.048,0.0485,0.0568,0.0633,0.0631,0.0725,0.0743,0.0772,0.0826,0.0808,0.0846,0.0905,0.091,0.0761,0.0749,0.0739,0.0703,0.0848,0,0,0,0,0,-0.0136,-0.0079,0.0102,0.0139,0.0187,0.0335,0.0384,0.0462,0.0558,0.0588,0.0662,0.0736,0.0792,0.0803,0.0872,0.0873,0.0924,0.0859,0.0848,0.0839,0.0825,0.084,0.0827,0.0967,0.0967,0.0967,0,0,-0.019,-0.0082,-0.0047,0.0106,0.0192,0.025,0.0362,0.0425,0.0466,0.0585,0.0629,0.0705,0.0796,0.0816,0.083,0.0843,0.0837,0.0841,0.0831,0.0824,0.084,0.0825,0.0812,0.0969,0.0969,0.0968,0,0,-0.0272,-0.018,-0.0153,-0.0073,0.0062,0.0157,0.0171,0.0329,0.0381,0.0457,0.0548,0.0586,0.0695,0.0725,0.0759,0.0734,0.0799,0.0771,0.0657,0.067,0.0656,0.0645,0.0717,0.0713,0.0744,0.0743,0.0743,0,-0.0337,-0.026,-0.0141,-0.0102,-0.0036,0.0107,0.0147,0.0208,0.0361,0.0416,0.0445,0.0606,0.0642,0.0666,0.0648,0.0696,0.0754,0.0676,0.0647,0.0637,0.0629,0.0705,0.0704,0.0734,0.0735,0.0736,0.0737,0,-0.0374,-0.0324,-0.032,-0.0202,-0.0141,-0.009,0.0038,0.0093,0.0184,0.0284,0.0359,0.0423,0.055,0.052,0.0562,0.053,0.061,0.0639,0.0652,0.0601,0.0688,0.069,0.0721,0.0724,0.0727,0.0729,0,0,-0.044,-0.035,-0.0341,-0.0262,-0.0173,-0.0075,-0.0076,0.0051,0.0175,0.0191,0.0333,0.0294,0.039,0.0435,0.0483,0.041,0.0372,0.0475,0.048,0.0503,0.0453,0.053,0.0541,0.0392,0.039,0.0389,0.0545,0,-0.0475,-0.0422,-0.0372,-0.0288,-0.0227,-0.0124,-0.0057,0.0048,0.0164,0.0331,0.0303,0.0479,0.0346,0.0475,0.0349,0.044,0.0366,0.0331,0.054,0.0547,0.0582,0.054,0.0665,0.0814,0.0547,0.0547,0.0548,0,-0.05,-0.0435,-0.0407,-0.0205,-0.0155,-0.0091,0.0126,0.0214,0.0371,0.0483,0.0518,0.0626,0.0576,0.0514,0.0431,0.0432,0.0411,0.0386,0.0395,0.053,0.0624,0.0825,0.0829,0.0694,0.0551,0.0551,0.0551,0,-0.054,-0.0418,-0.038,-0.0339,-0.015,-0.007,0.0081,0.0253,0.0433,0.0627,0.0824,0.0761,0.0918,0.0729,0.0666,0.0593,0.0608,0.0545,0.0562,0.0573,0.0751,0.0778,0.0609,0.0451,0.045,0.045,0.0449,0,-0.0578,-0.0504,-0.0363,-0.0331,-0.0109,0.0,0.0263,0.0414,0.067,0.0934,0.0948,0.1171,0.0983,0.0999,0.0774,0.0706,0.0712,0.054,0.0598,0.0696,0.0714,0.0668,0.055,0.0456,0.0455,0.0453,0.0452,0,-0.0643,-0.0602,-0.0465,-0.0252,-0.0149,0.0033,0.0427,0.0662,0.0878,0.1223,0.1324,0.1546,0.1592,0.1379,0.1243,0.1003,0.0782,0.0817,0.0971,0.1038,0.0852,0.0722,0.0555,0.0518,0.0837,0.084,0.0842,0,-0.0665,-0.0653,-0.0406,-0.0248,-0.0138,0.0157,0.0404,0.0716,0.0983,0.1454,0.1654,0.1884,0.2043,0.1886,0.157,0.1262,0.0992,0.1161,0.0965,0.0846,0.0743,0.0548,0.0513,0.1159,0.1164,0.1167,0.117,0,-0.0656,-0.061,-0.0468,-0.0164,0.0105,0.043,0.0801,0.1033,0.1426,0.171,0.2151,0.2323,0.2347,0.2205,0.1864,0.1601,0.1062,0.1227,0.1061,0.0923,0.0746,0.0746,0.1086,0.1203,0.12,0.1198,0.1196,0.1195,-0.0582,-0.0447,-0.0255,0.0074,0.0341,0.072,0.1043,0.1373,0.1788,0.2258,0.2432,0.2715,0.2632,0.2235,0.1908,0.148,0.1316,0.1271,0.1119,0.0928,0.0859,0.1278,0.1469,0.1467,0.1466,0.1464,0.1463,0,-0.0341,-0.021,0.0031,0.0474,0.0808,0.0895,0.1354,0.1648,0.2083,0.2392,0.2726,0.2948,0.2667,0.2326,0.1822,0.1436,0.1182,0.1208,0.0951,0.0917,0.1306,0.1288,0.1502,0.1502,0.1502,0.1502,0.1502,0.1503,-0.0172,0.0122,0.0264,0.0863,0.1122,0.1598,0.1847,0.2122,0.2368,0.2783,0.3033,0.3234,0.3052,0.2076,0.1409,0.1246,0.0865,0.0791,0.0583,0.085,0.0843,0.0835,0.0788,0.0893,0.0892,0.0276,0.027,0.0266]}],[{"header":{"parameterUnit":"m.s-1","parameterCategory":2,"la1":30.2991,"la2":30.254,"lo1":-89.0895,"lo2":-89.0444,"dy":0.0017,"dx":0.0017,"nx":28,"ny":28,"refTime":"2023-08-01T21:00:00:Z","depth":"2","parameterNumber":2,"parameterNumberName":"U-component_of_CURRENTS"},"data":[0,0,0,0,0,0,0,0,0,0,0,0,0,0,0,0,0,0,0,0,0,0,0,0,0,0,0,0,0,0,0,0,0,0,0,0,0,0,0,0,0,0,0,0,0,0,0,0,0,0,0,0,0,0,0,0,0,0,-0.0762,-0.0761,0,-0.0766,-0.0767,-0.0768,-0.0874,-0.0875,-0.0877,-0.0879,-0.1041,-0.1043,-0.1046,0,0,0,0,0,0,0,0,0,0,0,0,0,-0.0861,-0.0859,-0.0762,-0.0761,-0.076,-0.0766,-0.0767,-0.0768,-0.0873,-0.0875,-0.0877,-0.0879,-0.104,-0.1043,-0.1046,0,0,0,0,0,0,0,0,0,0,0,0,0,-0.0847,-0.0859,-0.0762,-0.0805,-0.0808,-0.0766,-0.0767,-0.0769,-0.0873,-0.0875,-0.0878,-0.088,-0.1039,-0.1043,-0.1047,-0.1022,0,0,-0.1059,-0.1061,0,0,0,0,0,0,0,0,-0.0848,-0.0845,-0.0799,-0.0802,-0.0805,-0.0812,-0.0861,-0.0857,-0.0872,-0.086,-0.0879,-0.0882,-0.0969,-0.0979,-0.0989,-0.103,-0.1037,-0.106,-0.1062,-0.1064,-0.1065,0,0,0,0,0,0,0,-0.0849,-0.0846,-0.0776,-0.0798,-0.0801,-0.0828,-0.083,-0.0861,-0.0913,-0.0862,-0.0866,-0.0848,-0.0974,-0.0984,-0.0994,-0.1039,-0.106,-0.1063,-0.1066,-0.1067,-0.1085,-0.1083,0,0,0,0,0,0,-0.0821,-0.0846,-0.0775,-0.0774,-0.082,-0.0823,-0.0826,-0.0817,-0.0909,-0.0921,-0.0845,-0.0852,-0.0976,-0.0989,-0.1,-0.1002,-0.1064,-0.1068,-0.107,-0.1087,-0.1084,-0.1082,0,0,0,0,0,0,-0.0823,-0.0815,-0.0775,-0.0801,-0.0796,-0.0817,-0.0807,-0.0815,-0.0843,-0.0893,-0.0911,-0.0865,-0.0979,-0.0994,-0.1025,-0.1009,-0.107,-0.1073,-0.1089,-0.1086,-0.1083,-0.099,0,0,0,0,0,0,-0.0826,-0.0816,-0.081,-0.0799,-0.0793,-0.0768,-0.0803,-0.0813,-0.082,-0.0831,-0.0915,-0.0932,-0.0982,-0.1018,-0.1029,-0.1015,-0.1077,-0.1092,-0.1088,-0.1084,-0.0996,-0.0985,-0.0975,0,0,0,0,0,-0.083,-0.0826,-0.081,-0.0801,-0.0781,-0.0766,-0.0768,-0.0799,-0.0819,-0.0835,-0.0872,-0.093,-0.1001,-0.1019,-0.1033,-0.102,-0.1093,-0.1089,-0.1084,-0.1001,-0.0987,-0.0975,0,0,0,0,0,0,-0.0866,-0.0834,-0.0818,-0.0802,-0.0782,-0.078,-0.0787,-0.0795,-0.0834,-0.0849,-0.0909,-0.0927,-0.0944,-0.0985,-0.1003,-0.1009,-0.1055,-0.1053,-0.0987,-0.0974,-0.0964,-0.0987,-0.108,0,0,0,0,0,-0.0859,-0.085,-0.0814,-0.0796,-0.0786,-0.0781,-0.0779,-0.0791,-0.0808,-0.083,-0.0872,-0.0909,-0.0928,-0.0956,-0.0984,-0.0992,-0.1007,-0.0988,-0.0978,-0.0969,-0.0992,-0.0975,-0.0966,-0.1067,-0.1067,-0.1067,0,0,-0.0853,-0.084,-0.0827,-0.0802,-0.0791,-0.0779,-0.0792,-0.0786,-0.0784,-0.0839,-0.0863,-0.0877,-0.0918,-0.0924,-0.0936,-0.0965,-0.0936,-0.0963,-0.0955,-0.0985,-0.097,-0.096,-0.0952,-0.1064,-0.1064,-0.1065,0,0,-0.084,-0.0834,-0.0817,-0.0811,-0.0785,-0.0783,-0.0777,-0.0768,-0.0783,-0.0779,-0.0809,-0.0809,-0.0851,-0.0868,-0.0883,-0.0828,-0.0874,-0.0833,-0.0813,-0.0793,-0.0786,-0.0779,-0.0741,-0.0732,-0.0836,-0.0835,-0.0835,0,-0.0829,-0.0813,-0.0809,-0.08,-0.0793,-0.0783,-0.0768,-0.0771,-0.0773,-0.0778,-0.0784,-0.0798,-0.0824,-0.0827,-0.0802,-0.0808,-0.0802,-0.0859,-0.0781,-0.0775,-0.0771,-0.0733,-0.0725,-0.083,-0.0831,-0.0832,-0.0832,0,-0.0802,-0.0798,-0.0793,-0.0777,-0.0774,-0.0764,-0.0751,-0.0753,-0.0751,-0.0749,-0.0741,-0.0745,-0.0765,-0.0746,-0.0763,-0.0735,-0.0739,-0.0762,-0.0817,-0.0755,-0.0719,-0.0711,-0.0823,-0.0825,-0.0827,-0.0828,0,0,-0.0748,-0.0766,-0.0764,-0.0767,-0.0768,-0.076,-0.0757,-0.0747,-0.0752,-0.0733,-0.073,-0.0713,-0.0713,-0.0728,-0.0727,-0.0703,-0.0628,-0.0718,-0.0719,-0.0686,-0.057,-0.0491,-0.0476,-0.0638,-0.0637,-0.0637,-0.0542,0,-0.072,-0.0715,-0.073,-0.0726,-0.0725,-0.0738,-0.0739,-0.0738,-0.0737,-0.0736,-0.0718,-0.072,-0.0707,-0.0706,-0.0673,-0.0658,-0.0613,-0.0652,-0.0632,-0.0631,-0.0575,-0.0466,-0.0467,-0.0376,-0.0535,-0.0534,-0.0534,0,-0.0685,-0.0695,-0.0689,-0.072,-0.0718,-0.0716,-0.0731,-0.0732,-0.0738,-0.074,-0.0732,-0.0731,-0.0699,-0.069,-0.0622,-0.0648,-0.0603,-0.0574,-0.057,-0.0538,-0.054,-0.0473,-0.0358,-0.0522,-0.0523,-0.0524,-0.0525,0,-0.0662,-0.067,-0.0673,-0.0681,-0.0704,-0.0707,-0.0717,-0.0731,-0.074,-0.075,-0.0748,-0.0727,-0.0692,-0.0659,-0.0572,-0.0612,-0.0473,-0.0528,-0.0405,-0.0399,-0.042,-0.0416,-0.0464,-0.0464,-0.0464,-0.0464,-0.0465,0,-0.0643,-0.0646,-0.0664,-0.067,-0.0666,-0.0697,-0.0703,-0.0714,-0.0738,-0.0729,-0.0749,-0.0713,-0.068,-0.0596,-0.0557,-0.0425,-0.0454,-0.0382,-0.0364,-0.0379,-0.0373,-0.054,-0.055,-0.0461,-0.0462,-0.0462,-0.0463,0,-0.0619,-0.0636,-0.0634,-0.0653,-0.0656,-0.0653,-0.0686,-0.0693,-0.0728,-0.0713,-0.0717,-0.0684,-0.058,-0.0507,-0.0413,-0.0372,-0.0289,-0.0227,-0.0225,-0.0209,-0.0244,-0.0251,-0.0136,-0.0132,-0.0129,-0.0126,-0.0124,0,-0.0611,-0.061,-0.0605,-0.0592,-0.0597,-0.0609,-0.0614,-0.067,-0.0685,-0.0674,-0.0655,-0.0561,-0.0466,-0.0288,-0.0201,-0.0095,-0.0139,-0.0038,-0.0123,-0.0213,-0.0208,-0.022,-0.023,-0.0101,-0.0098,-0.0097,-0.0095,0,-0.0581,-0.0571,-0.0557,-0.0531,-0.0525,-0.0531,-0.0552,-0.0566,-0.0612,-0.0594,-0.0519,-0.0448,-0.028,-0.0133,0.0015,0.0035,-0.0073,0.0002,-0.008,-0.0176,-0.017,-0.0169,-0.0182,-0.0079,-0.0081,-0.0082,-0.0083,-0.0083,-0.0538,-0.0503,-0.0475,-0.0442,-0.0435,-0.0429,-0.0421,-0.0444,-0.0435,-0.0366,-0.0349,-0.0182,-0.0138,0.0122,0.0147,0.0147,0.0103,0.0067,0.0056,0.0045,0.004,0.0051,0.0184,0.0184,0.0184,0.0184,0.0184,0,-0.0469,-0.0426,-0.039,-0.0343,-0.0306,-0.0338,-0.0352,-0.0329,-0.0273,-0.0147,-0.0048,0.0055,0.0181,0.022,0.0268,0.025,0.0164,0.0206,0.0105,0.0091,0.0077,0.0068,0.0223,0.0223,0.0224,0.0224,0,0,-0.0427,-0.0354,-0.0324,-0.0222,-0.0194,-0.0147,-0.014,-0.0104,-0.0012,0.012,0.0254,0.037,0.0351,0.0392,0.032,0.0323,0.021,0.0285,0.0256,0.0134,0.0122,-0.0003,-0.0032,0,0,0,0,0]},{"header":{"parameterUnit":"m.s-1","parameterCategory":2,"la1":30.2991,"la2":30.254,"lo1":-89.0895,"lo2":-89.0444,"dy":0.0017,"dx":0.0017,"nx":28,"ny":28,"refTime":"2023-08-01T21:00:00:Z","depth":"2","parameterNumber":3,"parameterNumberName":"V-component_of_CURRENTS"},"data":[0,0,0,0,0,0,0,0,0,0,0,0,0,0,0,0,0,0,0,0,0,0,0,0,0,0,0,0,0,0,0,0,0,0,0,0,0,0,0,0,0,0,0,0,0,0,0,0,0,0,0,0,0,0,0,0,0,0,-0.0632,-0.0632,0,-0.0615,-0.0615,-0.0615,-0.0622,-0.0622,-0.0622,-0.0622,-0.0526,-0.0523,-0.052,0,0,0,0,0,0,0,0,0,0,0,0,0,-0.0671,-0.067,-0.0632,-0.0632,-0.0631,-0.0615,-0.0615,-0.0615,-0.0622,-0.0622,-0.0622,-0.0623,-0.0527,-0.0523,-0.052,0,0,0,0,0,0,0,0,0,0,0,0,0,-0.0655,-0.067,-0.0632,-0.0632,-0.0631,-0.0615,-0.0615,-0.0615,-0.0622,-0.0622,-0.0622,-0.0623,-0.0528,-0.0524,-0.0519,-0.0486,0,0,-0.0507,-0.0505,0,0,0,0,0,0,0,0,-0.0656,-0.0654,-0.0632,-0.0632,-0.0631,-0.062,-0.0593,-0.0567,-0.0621,-0.0627,-0.0622,-0.0623,-0.0548,-0.0542,-0.0542,-0.0481,-0.0477,-0.0506,-0.0504,-0.0502,-0.0501,0,0,0,0,0,0,0,-0.0657,-0.0655,-0.0627,-0.0632,-0.0631,-0.0632,-0.0631,-0.0589,-0.0585,-0.0626,-0.0626,-0.0622,-0.0548,-0.0546,-0.0539,-0.0476,-0.0506,-0.0503,-0.05,-0.0498,-0.0371,-0.037,0,0,0,0,0,0,-0.0656,-0.0656,-0.0627,-0.0626,-0.0643,-0.0631,-0.0629,-0.0624,-0.0588,-0.0583,-0.0622,-0.0622,-0.0553,-0.0544,-0.0536,-0.0477,-0.0502,-0.0498,-0.0495,-0.0371,-0.037,-0.0369,0,0,0,0,0,0,-0.0656,-0.0653,-0.0628,-0.064,-0.0636,-0.063,-0.0624,-0.0624,-0.0623,-0.0585,-0.0579,-0.0621,-0.0553,-0.0542,-0.0502,-0.0474,-0.0496,-0.0492,-0.0372,-0.0371,-0.037,-0.037,0,0,0,0,0,0,-0.0658,-0.0654,-0.0643,-0.0639,-0.0635,-0.0607,-0.0623,-0.0623,-0.0618,-0.0619,-0.0581,-0.0573,-0.0552,-0.0508,-0.0498,-0.0469,-0.0489,-0.0374,-0.0372,-0.037,-0.0371,-0.0369,-0.0367,0,0,0,0,0,-0.0659,-0.0634,-0.0642,-0.0638,-0.0623,-0.0606,-0.0604,-0.0602,-0.0618,-0.0606,-0.0593,-0.0575,-0.049,-0.0505,-0.0492,-0.0461,-0.0374,-0.0372,-0.037,-0.0372,-0.037,-0.0367,0,0,0,0,0,0,-0.0638,-0.0632,-0.0641,-0.0615,-0.061,-0.0606,-0.0588,-0.0602,-0.0585,-0.0582,-0.0565,-0.0554,-0.0508,-0.0486,-0.0503,-0.042,-0.0428,-0.0423,-0.0433,-0.043,-0.0428,-0.0433,-0.0485,0,0,0,0,0,-0.0632,-0.0616,-0.0614,-0.0594,-0.0587,-0.0594,-0.0586,-0.0589,-0.0577,-0.0572,-0.0553,-0.0524,-0.0489,-0.0464,-0.0429,-0.0382,-0.0375,-0.0354,-0.0352,-0.035,-0.0346,-0.0345,-0.0344,-0.0363,-0.0363,-0.0363,0,0,-0.0618,-0.0612,-0.0603,-0.0589,-0.0584,-0.0567,-0.059,-0.0572,-0.056,-0.0559,-0.053,-0.0514,-0.0477,-0.043,-0.0405,-0.0407,-0.0335,-0.0348,-0.0347,-0.0343,-0.0343,-0.0342,-0.034,-0.0362,-0.0362,-0.0362,0,0,-0.0587,-0.0578,-0.0559,-0.0551,-0.054,-0.0539,-0.0536,-0.0534,-0.0531,-0.0503,-0.0504,-0.0478,-0.0422,-0.0398,-0.0377,-0.034,-0.0328,-0.0324,-0.031,-0.0311,-0.0309,-0.0308,-0.0275,-0.0271,-0.032,-0.032,-0.032,0,-0.0573,-0.0556,-0.0549,-0.053,-0.0524,-0.0528,-0.0513,-0.05,-0.0489,-0.0493,-0.0486,-0.0441,-0.0404,-0.0366,-0.0349,-0.0333,-0.0329,-0.0325,-0.031,-0.0309,-0.0308,-0.0274,-0.027,-0.0319,-0.0319,-0.032,-0.032,0,-0.0534,-0.0522,-0.0505,-0.0488,-0.0475,-0.0458,-0.0447,-0.0438,-0.044,-0.0443,-0.0418,-0.0384,-0.0368,-0.034,-0.0325,-0.0297,-0.0294,-0.0313,-0.0321,-0.0306,-0.027,-0.0266,-0.0319,-0.0319,-0.0319,-0.0319,0,0,-0.0511,-0.0487,-0.0484,-0.049,-0.0458,-0.0455,-0.0419,-0.0413,-0.0426,-0.0391,-0.0404,-0.0331,-0.0347,-0.0324,-0.031,-0.029,-0.0261,-0.0295,-0.0295,-0.027,-0.0243,-0.0257,-0.0254,-0.0292,-0.0292,-0.0292,-0.0213,0,-0.0492,-0.0471,-0.0455,-0.0441,-0.0436,-0.0426,-0.0411,-0.0402,-0.0397,-0.0405,-0.037,-0.0368,-0.033,-0.0338,-0.0308,-0.0283,-0.0253,-0.0278,-0.0254,-0.0252,-0.0275,-0.0251,-0.0303,-0.0241,-0.0209,-0.0208,-0.0208,0,-0.0465,-0.0463,-0.0451,-0.046,-0.0458,-0.045,-0.0459,-0.0448,-0.044,-0.0442,-0.0427,-0.0415,-0.0366,-0.0356,-0.028,-0.0305,-0.0267,-0.0238,-0.0236,-0.0249,-0.026,-0.0254,-0.0234,-0.02,-0.0201,-0.0201,-0.0202,0,-0.0481,-0.0465,-0.0469,-0.0465,-0.0462,-0.047,-0.0474,-0.047,-0.047,-0.0484,-0.0473,-0.0446,-0.0408,-0.0376,-0.0284,-0.0298,-0.0205,-0.0226,-0.0193,-0.0192,-0.0229,-0.0233,-0.0179,-0.0179,-0.018,-0.018,-0.018,0,-0.0475,-0.0482,-0.0489,-0.0495,-0.052,-0.0511,-0.0539,-0.0542,-0.0539,-0.052,-0.0507,-0.0464,-0.0413,-0.0342,-0.0296,-0.0214,-0.0212,-0.0179,-0.0178,-0.0227,-0.0231,-0.0199,-0.0202,-0.0177,-0.0178,-0.0178,-0.0179,0,-0.0489,-0.0486,-0.0503,-0.0519,-0.0529,-0.0555,-0.0568,-0.058,-0.0576,-0.0542,-0.0539,-0.0464,-0.0376,-0.031,-0.0234,-0.0207,-0.0159,-0.0131,-0.0171,-0.0178,-0.0139,-0.0143,-0.0101,-0.0101,-0.0101,-0.0101,-0.0101,0,-0.0493,-0.0504,-0.0529,-0.0542,-0.0553,-0.0587,-0.0598,-0.0607,-0.0597,-0.0516,-0.0483,-0.0395,-0.0321,-0.022,-0.0186,-0.0131,-0.0111,-0.0148,-0.0191,-0.013,-0.0134,-0.0138,-0.0142,-0.022,-0.022,-0.0221,-0.0222,0,-0.0511,-0.0523,-0.0536,-0.0563,-0.0582,-0.0599,-0.0607,-0.0597,-0.0564,-0.0508,-0.0402,-0.0349,-0.0254,-0.0214,-0.0167,-0.0156,-0.0176,-0.0163,-0.0094,-0.0243,-0.0239,-0.0244,-0.0244,-0.0229,-0.0228,-0.0228,-0.0227,-0.0227,-0.0527,-0.054,-0.0556,-0.0584,-0.0595,-0.059,-0.0583,-0.0545,-0.0499,-0.0368,-0.0343,-0.0223,-0.0255,-0.0171,-0.0175,-0.0177,-0.018,-0.0205,-0.0204,-0.0201,-0.0241,-0.024,-0.0233,-0.0232,-0.0232,-0.0231,-0.0231,0,-0.0554,-0.0559,-0.0574,-0.0591,-0.0592,-0.0601,-0.0564,-0.0519,-0.042,-0.0288,-0.0197,-0.0175,-0.0179,-0.0164,-0.018,-0.0226,-0.0246,-0.0238,-0.0258,-0.0254,-0.0249,-0.0291,-0.0296,-0.0295,-0.0295,-0.0294,0,0,-0.0567,-0.0587,-0.059,-0.0588,-0.0589,-0.0567,-0.0532,-0.0426,-0.0319,-0.0158,-0.0052,-0.005,-0.0105,-0.0125,-0.0221,-0.0223,-0.0218,-0.0241,-0.0201,-0.0215,-0.0208,-0.0262,-0.0326,0,0,0,0,0]}],[{"header":{"parameterUnit":"m.s-1","parameterCategory":2,"la1":30.2991,"la2":30.254,"lo1":-89.0895,"lo2":-89.0444,"dy":0.0017,"dx":0.0017,"nx":28,"ny":28,"refTime":"2023-08-01T21:00:00:Z","depth":"4","parameterNumber":2,"parameterNumberName":"U-component_of_CURRENTS"},"data":[0,0,0,0,0,0,0,0,0,0,0,0,0,0,0,0,0,0,0,0,0,0,0,0,0,0,0,0,0,0,0,0,0,0,0,0,0,0,0,0,0,0,0,0,0,0,0,0,0,0,0,0,0,0,0,0,0,0,-0.0471,-0.0471,0,-0.0463,-0.0463,-0.0463,-0.0459,-0.0459,-0.0459,-0.0459,-0.0471,-0.0471,-0.0472,0,0,0,0,0,0,0,0,0,0,0,0,0,-0.0488,-0.0488,-0.0471,-0.0471,-0.0471,-0.0463,-0.0463,-0.0463,-0.0459,-0.0459,-0.0459,-0.0458,-0.0471,-0.0471,-0.0472,0,0,0,0,0,0,0,0,0,0,0,0,0,-0.0482,-0.0488,-0.0471,-0.0467,-0.0466,-0.0463,-0.0463,-0.0463,-0.0459,-0.0459,-0.0459,-0.0458,-0.0471,-0.0471,-0.0472,-0.0479,0,0,-0.0474,-0.0474,0,0,0,0,0,0,0,0,-0.0482,-0.0481,-0.0468,-0.0467,-0.0467,-0.0461,-0.0473,-0.0469,-0.0459,-0.0463,-0.0459,-0.0458,-0.0469,-0.047,-0.047,-0.0479,-0.048,-0.0474,-0.0474,-0.0474,-0.0475,0,0,0,0,0,0,0,-0.0482,-0.0481,-0.0469,-0.0468,-0.0467,-0.0467,-0.0466,-0.0472,-0.0468,-0.0463,-0.0462,-0.0459,-0.0469,-0.0469,-0.047,-0.048,-0.0474,-0.0474,-0.0475,-0.0475,-0.049,-0.049,0,0,0,0,0,0,-0.0481,-0.0482,-0.0469,-0.0469,-0.0473,-0.0467,-0.0466,-0.0464,-0.0467,-0.0467,-0.0459,-0.0459,-0.0468,-0.0469,-0.047,-0.0484,-0.0474,-0.0475,-0.0475,-0.049,-0.049,-0.049,0,0,0,0,0,0,-0.0481,-0.048,-0.0469,-0.0474,-0.0473,-0.0466,-0.0464,-0.0464,-0.0472,-0.0465,-0.0465,-0.047,-0.0468,-0.0469,-0.0478,-0.0485,-0.0475,-0.0476,-0.049,-0.049,-0.049,-0.0509,0,0,0,0,0,0,-0.0482,-0.048,-0.049,-0.0474,-0.0472,-0.0474,-0.0464,-0.0463,-0.047,-0.047,-0.0474,-0.0474,-0.0468,-0.0477,-0.0479,-0.0485,-0.0476,-0.049,-0.049,-0.049,-0.0508,-0.051,-0.0511,0,0,0,0,0,-0.0483,-0.0496,-0.049,-0.0489,-0.0482,-0.0474,-0.0474,-0.047,-0.0471,-0.0477,-0.0476,-0.0474,-0.0478,-0.0478,-0.048,-0.0487,-0.049,-0.049,-0.049,-0.0508,-0.0509,-0.0511,0,0,0,0,0,0,-0.0512,-0.0496,-0.049,-0.0498,-0.0489,-0.0474,-0.0483,-0.0478,-0.0482,-0.0486,-0.0479,-0.048,-0.0488,-0.0485,-0.0485,-0.0489,-0.0483,-0.0483,-0.0495,-0.0497,-0.0498,-0.0495,-0.0477,0,0,0,0,0,-0.0521,-0.0524,-0.0506,-0.0513,-0.0511,-0.0499,-0.05,-0.0494,-0.049,-0.0492,-0.049,-0.0488,-0.0489,-0.0492,-0.0491,-0.0499,-0.0486,-0.0502,-0.0503,-0.0505,-0.0502,-0.0483,-0.0482,-0.049,-0.049,-0.049,0,0,-0.0532,-0.0525,-0.0526,-0.052,-0.0513,-0.0511,-0.05,-0.0503,-0.0503,-0.0494,-0.0501,-0.0496,-0.0492,-0.0495,-0.0499,-0.0495,-0.0497,-0.0505,-0.0506,-0.0502,-0.0483,-0.0482,-0.0481,-0.049,-0.049,-0.049,0,0,-0.0545,-0.0551,-0.055,-0.0547,-0.0539,-0.0533,-0.0536,-0.0523,-0.0523,-0.0526,-0.0516,-0.0513,-0.0517,-0.0507,-0.0506,-0.0514,-0.0504,-0.0518,-0.0523,-0.0505,-0.0504,-0.0503,-0.0492,-0.049,-0.0518,-0.0518,-0.0518,0,-0.0557,-0.0555,-0.0551,-0.055,-0.055,-0.0543,-0.0543,-0.0544,-0.0535,-0.0533,-0.0531,-0.0523,-0.052,-0.0517,-0.0516,-0.0517,-0.0508,-0.0519,-0.0506,-0.0505,-0.0504,-0.0493,-0.049,-0.0519,-0.0519,-0.0519,-0.0519,0,-0.0558,-0.0566,-0.0569,-0.0563,-0.0566,-0.0569,-0.0562,-0.0566,-0.0566,-0.0557,-0.0555,-0.0544,-0.0533,-0.0535,-0.053,-0.0521,-0.0517,-0.0511,-0.0503,-0.0504,-0.0492,-0.0489,-0.052,-0.052,-0.052,-0.0519,0,0,-0.0554,-0.0565,-0.0566,-0.0568,-0.0575,-0.0571,-0.0583,-0.058,-0.0578,-0.0576,-0.0569,-0.0565,-0.0551,-0.0546,-0.0537,-0.0525,-0.0509,-0.0516,-0.0514,-0.0506,-0.0474,-0.0415,-0.0406,-0.0501,-0.05,-0.05,-0.0472,0,-0.0551,-0.0556,-0.0563,-0.0571,-0.0573,-0.0581,-0.0586,-0.0587,-0.0587,-0.058,-0.0574,-0.0562,-0.0558,-0.0547,-0.0536,-0.0515,-0.0501,-0.0517,-0.0473,-0.0472,-0.042,-0.04,-0.0498,-0.047,-0.0469,-0.0468,-0.0468,0,-0.0542,-0.0548,-0.0557,-0.0569,-0.0569,-0.0574,-0.058,-0.0582,-0.0582,-0.0579,-0.0573,-0.0562,-0.0548,-0.0539,-0.0507,-0.0518,-0.0495,-0.0481,-0.0479,-0.0413,-0.0406,-0.0466,-0.0462,-0.0463,-0.0463,-0.0464,-0.0464,0,-0.053,-0.0542,-0.0551,-0.0556,-0.0569,-0.0574,-0.0577,-0.058,-0.0573,-0.0573,-0.0559,-0.0553,-0.053,-0.0515,-0.0481,-0.0493,-0.0441,-0.0452,-0.038,-0.0376,-0.0432,-0.0433,-0.042,-0.042,-0.042,-0.042,-0.042,0,-0.0523,-0.0529,-0.0546,-0.0551,-0.0547,-0.0563,-0.0557,-0.0559,-0.0557,-0.0532,-0.0548,-0.0515,-0.0518,-0.0489,-0.0476,-0.0409,-0.0432,-0.0371,-0.0357,-0.0441,-0.0444,-0.043,-0.0431,-0.0419,-0.0419,-0.0419,-0.042,0,-0.0507,-0.0524,-0.0528,-0.0541,-0.0543,-0.0537,-0.0535,-0.0523,-0.0529,-0.0497,-0.0492,-0.0479,-0.0432,-0.0429,-0.0394,-0.0378,-0.034,-0.031,-0.0399,-0.0393,-0.0296,-0.0299,-0.0235,-0.0233,-0.0231,-0.0229,-0.0228,0,-0.0501,-0.0504,-0.051,-0.0502,-0.0508,-0.0504,-0.0494,-0.0503,-0.0485,-0.0456,-0.0428,-0.0389,-0.0372,-0.028,-0.0293,-0.0265,-0.0255,-0.025,-0.0276,-0.028,-0.0274,-0.028,-0.0286,-0.0224,-0.0224,-0.0223,-0.0223,0,-0.0478,-0.0482,-0.0477,-0.0465,-0.0455,-0.0436,-0.0423,-0.0403,-0.0396,-0.0412,-0.0332,-0.0298,-0.024,-0.0222,-0.0195,-0.018,-0.0269,-0.0229,-0.0234,-0.0257,-0.0265,-0.0263,-0.0271,-0.0215,-0.0216,-0.0217,-0.0217,0,-0.0451,-0.0435,-0.0428,-0.0404,-0.0391,-0.0352,-0.0359,-0.032,-0.0302,-0.028,-0.0249,-0.0215,-0.0215,-0.0174,-0.0152,-0.013,-0.0131,-0.014,-0.015,-0.0158,-0.0146,-0.0146,-0.0035,0,0,0,0,0,-0.042,-0.0385,-0.0365,-0.0328,-0.0315,-0.0302,-0.0296,-0.0307,-0.0307,-0.0229,-0.0235,-0.0176,-0.0124,-0.0119,-0.0078,-0.0129,-0.0145,-0.0083,-0.0164,-0.0175,-0.0183,-0.0177,0,0,0,0,0,0,-0.0393,-0.0369,-0.0344,-0.0264,-0.0228,-0.0202,-0.0192,-0.02,-0.0163,-0.017,-0.014,-0.0152,-0.0109,-0.0125,-0.0065,-0.0066,-0.011,-0.0076,-0.0075,-0.017,-0.0178,-0.0185,-0.0181,0,0,0,0,0]},{"header":{"parameterUnit":"m.s-1","parameterCategory":2,"la1":30.2991,"la2":30.254,"lo1":-89.0895,"lo2":-89.0444,"dy":0.0017,"dx":0.0017,"nx":28,"ny":28,"refTime":"2023-08-01T21:00:00:Z","depth":"4","parameterNumber":3,"parameterNumberName":"V-component_of_CURRENTS"},"data":[0,0,0,0,0,0,0,0,0,0,0,0,0,0,0,0,0,0,0,0,0,0,0,0,0,0,0,0,0,0,0,0,0,0,0,0,0,0,0,0,0,0,0,0,0,0,0,0,0,0,0,0,0,0,0,0,0,0,-0.0368,-0.0368,0,-0.0364,-0.0364,-0.0364,-0.039,-0.0391,-0.0392,-0.0392,-0.0386,-0.0385,-0.0385,0,0,0,0,0,0,0,0,0,0,0,0,0,-0.0401,-0.0401,-0.0368,-0.0368,-0.0368,-0.0364,-0.0364,-0.0364,-0.039,-0.0391,-0.0392,-0.0393,-0.0387,-0.0386,-0.0385,0,0,0,0,0,0,0,0,0,0,0,0,0,-0.0391,-0.04,-0.0368,-0.038,-0.0381,-0.0364,-0.0364,-0.0364,-0.039,-0.0391,-0.0392,-0.0393,-0.0387,-0.0386,-0.0384,-0.0356,0,0,-0.0381,-0.038,0,0,0,0,0,0,0,0,-0.0392,-0.039,-0.0379,-0.0379,-0.038,-0.0378,-0.0374,-0.0361,-0.039,-0.0387,-0.0392,-0.0394,-0.0382,-0.0382,-0.0379,-0.0356,-0.0356,-0.0381,-0.038,-0.0379,-0.0379,0,0,0,0,0,0,0,-0.0393,-0.0391,-0.0367,-0.0378,-0.038,-0.0387,-0.0386,-0.0371,-0.0379,-0.0387,-0.0389,-0.0388,-0.0383,-0.038,-0.0379,-0.0356,-0.0381,-0.038,-0.0379,-0.0378,-0.0363,-0.0363,0,0,0,0,0,0,-0.0391,-0.0391,-0.0367,-0.0367,-0.0388,-0.0385,-0.0385,-0.0378,-0.038,-0.0381,-0.0387,-0.0389,-0.0382,-0.0381,-0.0379,-0.0364,-0.0379,-0.0378,-0.0378,-0.0363,-0.0363,-0.0364,0,0,0,0,0,0,-0.0391,-0.0388,-0.0368,-0.0379,-0.0377,-0.0383,-0.0376,-0.0378,-0.0383,-0.0379,-0.038,-0.0391,-0.0383,-0.0381,-0.0372,-0.0364,-0.0378,-0.0377,-0.0362,-0.0363,-0.0363,-0.0323,0,0,0,0,0,0,-0.0392,-0.0388,-0.0385,-0.0379,-0.0376,-0.036,-0.0375,-0.0377,-0.038,-0.0383,-0.0382,-0.0383,-0.0383,-0.0374,-0.0371,-0.0362,-0.0376,-0.0362,-0.0363,-0.0363,-0.0324,-0.0322,-0.032,0,0,0,0,0,-0.0393,-0.038,-0.0385,-0.0382,-0.037,-0.0359,-0.0359,-0.0368,-0.0379,-0.0377,-0.038,-0.0383,-0.0377,-0.0372,-0.0369,-0.036,-0.0362,-0.0363,-0.0363,-0.0324,-0.0322,-0.032,0,0,0,0,0,0,-0.0389,-0.0381,-0.0386,-0.0371,-0.0368,-0.0364,-0.0361,-0.0367,-0.0367,-0.0372,-0.0375,-0.0374,-0.0367,-0.0372,-0.0368,-0.0362,-0.0374,-0.0374,-0.0346,-0.0344,-0.0342,-0.0323,-0.0375,0,0,0,0,0,-0.0386,-0.0379,-0.0373,-0.0362,-0.0359,-0.0361,-0.0359,-0.0364,-0.0362,-0.0364,-0.0365,-0.0369,-0.0365,-0.0362,-0.0361,-0.0346,-0.0346,-0.0345,-0.0343,-0.0341,-0.0326,-0.0294,-0.0287,-0.0366,-0.0366,-0.0366,0,0,-0.0383,-0.0377,-0.0373,-0.0361,-0.036,-0.0351,-0.0363,-0.0357,-0.035,-0.0361,-0.0354,-0.0358,-0.0361,-0.035,-0.0348,-0.0353,-0.033,-0.0342,-0.034,-0.0325,-0.0294,-0.0286,-0.0279,-0.0366,-0.0366,-0.0366,0,0,-0.037,-0.0365,-0.0356,-0.0351,-0.0347,-0.0344,-0.0343,-0.0341,-0.0342,-0.0332,-0.0342,-0.0332,-0.0336,-0.0324,-0.0321,-0.0307,-0.0321,-0.0328,-0.0295,-0.0265,-0.0258,-0.0251,-0.0282,-0.0278,-0.0326,-0.0326,-0.0325,0,-0.0369,-0.0353,-0.0352,-0.0341,-0.0335,-0.0341,-0.0329,-0.0325,-0.0322,-0.0314,-0.033,-0.0316,-0.0315,-0.0286,-0.0288,-0.0297,-0.031,-0.0298,-0.0259,-0.0252,-0.0246,-0.0279,-0.0275,-0.0324,-0.0324,-0.0324,-0.0324,0,-0.0349,-0.0339,-0.0332,-0.0322,-0.0313,-0.0303,-0.0296,-0.0291,-0.0296,-0.0291,-0.0272,-0.0265,-0.0257,-0.0261,-0.0267,-0.0229,-0.0267,-0.0258,-0.0256,-0.0234,-0.0273,-0.0269,-0.0321,-0.0322,-0.0322,-0.0323,0,0,-0.0343,-0.0323,-0.0322,-0.0319,-0.0302,-0.0297,-0.0275,-0.0257,-0.0257,-0.0239,-0.0233,-0.0201,-0.0202,-0.02,-0.0205,-0.0176,-0.0153,-0.02,-0.02,-0.0218,-0.0137,-0.0176,-0.0177,-0.0138,-0.0136,-0.0135,-0.0197,0,-0.0331,-0.0313,-0.03,-0.0286,-0.0277,-0.0267,-0.0254,-0.0239,-0.0236,-0.0236,-0.0203,-0.0206,-0.0179,-0.0192,-0.0146,-0.0165,-0.0137,-0.0141,-0.0167,-0.0169,-0.0192,-0.017,-0.0129,-0.0194,-0.0193,-0.0193,-0.0192,0,-0.0315,-0.0307,-0.0291,-0.0277,-0.0273,-0.0267,-0.0255,-0.0243,-0.0228,-0.0229,-0.0197,-0.0199,-0.0161,-0.0151,-0.0107,-0.0119,-0.0114,-0.0115,-0.0117,-0.0156,-0.0198,-0.0212,-0.0186,-0.0187,-0.0187,-0.0187,-0.0188,0,-0.032,-0.0299,-0.0291,-0.0285,-0.027,-0.0264,-0.0258,-0.0243,-0.024,-0.0235,-0.0248,-0.0194,-0.0206,-0.0151,-0.015,-0.0132,-0.013,-0.0107,-0.0131,-0.0138,-0.0102,-0.0108,-0.0049,-0.0049,-0.0049,-0.0048,-0.0048,0,-0.0309,-0.0305,-0.03,-0.0298,-0.0298,-0.0281,-0.0282,-0.0274,-0.027,-0.0267,-0.0249,-0.0246,-0.0202,-0.02,-0.0166,-0.0158,-0.0136,-0.0119,-0.0137,-0.0094,-0.0098,-0.0103,-0.0108,-0.0051,-0.005,-0.005,-0.0049,0,-0.0317,-0.0309,-0.0307,-0.0301,-0.0302,-0.0307,-0.0303,-0.0303,-0.0305,-0.0308,-0.0311,-0.0303,-0.0297,-0.0276,-0.0241,-0.0208,-0.0185,-0.0184,-0.0196,-0.0215,-0.0213,-0.0216,-0.0203,-0.0205,-0.0206,-0.0207,-0.0208,0,-0.0316,-0.0319,-0.0324,-0.0328,-0.0329,-0.0332,-0.0331,-0.0323,-0.0321,-0.0328,-0.033,-0.0349,-0.0334,-0.0327,-0.0297,-0.0268,-0.024,-0.0253,-0.0156,-0.0201,-0.0219,-0.022,-0.0222,-0.021,-0.021,-0.021,-0.0211,0,-0.0327,-0.0337,-0.0339,-0.0352,-0.0357,-0.0353,-0.0352,-0.0353,-0.0339,-0.0347,-0.0333,-0.0328,-0.0346,-0.0322,-0.0337,-0.0291,-0.0253,-0.0264,-0.026,-0.0168,-0.0209,-0.0226,-0.0226,-0.0215,-0.0214,-0.0214,-0.0214,0,-0.0346,-0.0355,-0.0366,-0.0375,-0.0378,-0.0372,-0.0365,-0.0349,-0.0345,-0.0336,-0.0333,-0.0335,-0.0339,-0.0337,-0.0328,-0.0322,-0.028,-0.0243,-0.0239,-0.0234,-0.0212,-0.0266,-0.0295,0,0,0,0,0,-0.0368,-0.0381,-0.0386,-0.0391,-0.0391,-0.0395,-0.0377,-0.0364,-0.0352,-0.0332,-0.0325,-0.0323,-0.0317,-0.0323,-0.0316,-0.0348,-0.0296,-0.034,-0.0256,-0.0238,-0.0234,-0.0203,0,0,0,0,0,0,-0.0384,-0.04,-0.0394,-0.0404,-0.041,-0.0408,-0.0396,-0.0381,-0.036,-0.0344,-0.0337,-0.0326,-0.0324,-0.0327,-0.0321,-0.0323,-0.0266,-0.034,-0.0339,-0.0241,-0.0237,-0.0233,-0.02,0,0,0,0,0]}]]